This demonstration page uses our WeatherBlox Daily Observations layout. Learn more.

Left ArrowRight Arrow

40.92945, -100.16068

Hourly Observations for June 26, 2016

Temp ( °F °C ) Dew Point ( °F °C ) Humidity (%) Winds ( mph kmh ) Pressure ( in mb ) Visibility ( mi km ) Precip ( " mm )
12:15 am 00:15 Clear 64 18 61 16.3 90 90 Calm 30.00 1016 10 16 N/A
12:35 am 00:35 Clear 65 18.5 62 16.7 89 89 Calm 30.00 1016 10 16 N/A
1:00 am 01:00 Clear 64 17.5 60 15.8 90 90 Calm 30.00 1016 10 16 N/A
1:15 am 01:15 Clear 63 17.3 61 16 92 92 Calm 30.00 1016 10 16 N/A
1:35 am 01:35 Clear 63 17.1 61 16 93 93 Calm 30.00 1016 10 16 N/A
1:55 am 01:55 Clear 63 17 61 16 94 94 NNE 3 6 30.06 1018 10 16 N/A
2:15 am 02:15 Clear 62 16.7 60 15.5 93 93 Calm 30.06 1018 10 16 N/A
2:35 am 02:35 Clear 60 15.7 58 14.6 93 93 WNW 3 6 30.03 1017 10 16 N/A
2:55 am 02:55 Clear 60 15.8 58 14.7 93 93 Calm 30.03 1017 10 16 N/A
3:15 am 03:15 Clear 60 15.6 58 14.6 94 94 NNW 3 6 30.03 1017 10 16 N/A
3:35 am 03:35 Clear 60 15.7 58 14.7 94 94 N 3 6 30.03 1017 10 16 N/A
3:55 am 03:55 Clear 60 15.4 58 14.4 94 94 Calm 30.03 1017 10 16 N/A
4:15 am 04:15 Clear 60 15.5 58 14.5 94 94 Calm 30.06 1018 10 16 N/A
4:35 am 04:35 Clear with Mist and Fog 59 15.1 58 14.2 94 94 Calm 30.06 1018 4 6 N/A
4:55 am 04:55 Clear 58 14.3 56 13.4 94 94 N 5 7 30.06 1018 10 16 N/A
5:15 am 05:15 Clear 57 13.9 56 13.1 95 95 Calm 30.09 1019 10 16 N/A
5:35 am 05:35 Clear 58 14.3 56 13.4 94 94 Calm 30.06 1018 10 16 N/A
5:55 am 05:55 Clear 57 14 55 13 94 94 WNW 3 6 30.09 1019 10 16 N/A
6:15 am 06:15 Sunny 57 14.1 56 13.1 94 94 W 3 6 30.06 1018 7 11 N/A
6:35 am 06:35 Sunny 57 14.1 56 13.1 94 94 W 6 9 30.06 1018 7 11 N/A
6:55 am 06:55 Sunny with Mist and Fog 58 14.2 56 13.4 95 95 W 6 9 30.12 1020 5 8 N/A
7:15 am 07:15 Sunny with Mist and Fog 59 15 57 14.1 94 94 NNW 3 6 30.09 1019 5 8 N/A
7:35 am 07:35 Sunny 61 16 59 14.9 93 93 NW 6 9 30.09 1019 10 16 N/A
7:55 am 07:55 Sunny 62 16.7 60 15.3 92 92 Calm 30.09 1019 10 16 N/A
8:15 am 08:15 Sunny 64 18 61 16.1 89 89 Calm 30.06 1018 10 16 N/A
8:35 am 08:35 Sunny 66 18.8 62 16.5 87 87 Calm 30.06 1018 10 16 N/A
8:55 am 08:55 Sunny 68 20 63 17.1 83 83 Calm 30.06 1018 10 16 N/A
9:15 am 09:15 Sunny 70 21.1 63 17.4 80 80 Calm 30.03 1017 10 16 N/A
9:35 am 09:35 Sunny 72 22 63 17.4 75 75 Calm 30.03 1017 10 16 N/A
9:55 am 09:55 Sunny 74 23.1 64 17.8 72 72 Calm 30.03 1017 10 16 N/A
10:15 am 10:15 Sunny 75 24 63 17.4 67 67 Calm 30.03 1017 10 16 N/A
10:35 am 10:35 Sunny 78 25.5 60 15.7 55 55 ESE 8 13 30.03 1017 10 16 N/A
10:55 am 10:55 Sunny 78 25.8 61 16.2 55 55 SE 10 17 30.03 1017 10 16 N/A
11:15 am 11:15 Sunny 79 26.1 62 16.4 55 55 ESE 10 17 30.03 1017 10 16 N/A
11:35 am 11:35 Sunny 80 26.6 61 16.3 53 53 ESE 8 13 30.03 1017 10 16 N/A
11:55 am 11:55 Sunny 81 27.1 62 16.6 53 53 ESE 14 22 30.03 1017 10 16 N/A
12:15 pm 12:15 Sunny 81 27.3 61 15.9 50 50 ESE 12 19 30.03 1017 10 16 N/A
12:35 pm 12:35 Sunny 82 27.8 61 16.3 50 50 ESE 13 20 30.03 1017 10 16 N/A
12:55 pm 12:55 Sunny 83 28.1 61 15.9 47 47 ESE 14 22 30.00 1016 10 16 N/A
1:15 pm 13:15 Sunny 83 28.5 58 14.2 42 42 ESE 13 20 29.97 1015 10 16 N/A
1:35 pm 13:35 Sunny 84 29 56 13.3 38 38 SE 13 20 29.97 1015 10 16 N/A
2:00 pm 14:00 Partly Cloudy 85 29.7 58 14.4 39 39 ESE 17 28 29.97 1015 10 16 N/A
2:15 pm 14:15 Sunny 85 29.5 60 15.7 43 43 ESE 15 24 29.94 1014 10 16 N/A
2:35 pm 14:35 Sunny 85 29.7 54 12.1 34 34 SE 18 30 29.94 1014 10 16 N/A
2:55 pm 14:55 Sunny 86 30 55 12.5 34 34 SE 14 22 29.94 1014 10 16 N/A
3:15 pm 15:15 Sunny 87 30.6 56 13.2 34 34 SE 15 24 29.94 1014 10 16 N/A
3:35 pm 15:35 Sunny 87 30.8 56 13.5 35 35 SE 14 22 29.94 1014 10 16 N/A
3:55 pm 15:55 Sunny 87 30.7 57 13.7 35 35 ESE 13 20 29.94 1014 10 16 N/A
4:15 pm 16:15 Sunny 87 30.6 55 12.5 33 33 SE 14 22 29.94 1014 10 16 N/A
4:35 pm 16:35 Sunny 88 31 53 11.8 31 31 SE 15 24 29.94 1014 10 16 N/A
4:55 pm 16:55 Sunny 88 31 52 11 29 29 ESE 15 24 29.91 1013 10 16 N/A
5:15 pm 17:15 Sunny 87 30.7 51 10.7 29 29 SE 15 24 29.91 1013 10 16 N/A
5:35 pm 17:35 Sunny 88 30.9 50 9.8 27 27 ESE 14 22 29.91 1013 10 16 N/A
5:55 pm 17:55 Sunny 87 30.7 49 9.6 27 27 ESE 10 17 29.91 1013 10 16 N/A
6:15 pm 18:15 Sunny 87 30.5 49 9.6 27 27 SE 13 20 29.91 1013 10 16 N/A
6:35 pm 18:35 Sunny 87 30.6 48 9 26 26 SE 14 22 29.88 1012 10 16 N/A
6:55 pm 18:55 Sunny 86 30.2 49 9.3 27 27 SE 12 19 29.91 1013 10 16 N/A
7:15 pm 19:15 Sunny 86 30 48 9 27 27 SE 13 20 29.91 1013 10 16 N/A
7:35 pm 19:35 Sunny 85 29.7 49 9.5 28 28 SE 10 17 29.91 1013 10 16 N/A
7:55 pm 19:55 Sunny 84 29.1 50 9.8 30 30 SE 10 17 29.91 1013 10 16 N/A
8:15 pm 20:15 Sunny 83 28.4 51 10.4 33 33 ESE 9 15 29.91 1013 10 16 N/A
8:35 pm 20:35 Sunny 81 27.1 51 10.5 35 35 ESE 9 15 29.97 1015 10 16 N/A
8:55 pm 20:55 Sunny 79 26.2 53 11.7 40 40 ESE 7 11 29.97 1015 10 16 N/A
9:15 pm 21:15 Clear 78 25.4 53 11.8 43 43 ESE 8 13 29.97 1015 10 16 N/A
9:35 pm 21:35 Clear 78 25.4 54 12.4 44 44 ESE 8 13 29.97 1015 10 16 N/A
9:55 pm 21:55 Clear 75 23.8 56 13.6 53 53 E 8 13 30.03 1017 10 16 N/A
10:15 pm 22:15 Clear 75 24.1 57 14 53 53 ESE 9 15 30.03 1017 10 16 N/A
10:35 pm 22:35 Partly Cloudy with Nearby Thunderstorms 74 23.6 59 15 59 59 N 17 28 30.09 1019 10 16 N/A
10:55 pm 22:55 Cloudy with Thunderstorms 74 23.2 52 11.2 47 47 N 26 43 30.12 1020 10 16 N/A
11:15 pm 23:15 Cloudy with Nearby Thunderstorms 65 18.5 58 14.2 76 76 ESE 7 11 30.18 1022 5 8 0.09 2.29
11:35 pm 23:35 Cloudy with Light Rain 68 20 58 14.6 71 71 SSE 25 41 30.06 1018 10 16 0.09 2.29
11:55 pm 23:55 Mostly Cloudy 72 22.2 55 13 56 56 SSE 28 44 30.00 1016 10 16 0.10 2.54

Powered by AerisWeather